Morrisville, VT

2:03 AM EST on February 10, 2016 (GMT -0500)
Morrisville Stowe State

Weather History for KMVL - October, 2013

Change the Weather History Date:

Monday, October 28, 2013

  Actual Average Record
Temperature  
Mean Temperature 33 °F 42 °F  
Max Temperature 44 °F 52 °F 66 °F (2010)
Min Temperature 22 °F 32 °F 19 °F (1999)
Degree Days  
Heating Degree Days 32 23  
Month to date heating degree days 415 526  
Since 1 July heating degree days 729 858  
Cooling Degree Days 0 0  
Month to date cooling degree days 0 0  
Year to date cooling degree days 401 265  
Moisture  
Dew Point 28 °F    
Average Humidity 64    
Maximum Humidity 81    
Minimum Humidity 46    
Precipitation  
Precipitation 0.05 in 0.11 in 2.29 in (2006)
Month to date precipitation 1.65 2.83  
Year to date precipitation 34.69 29.96  
Sea Level Pressure  
Sea Level Pressure 30.16 in    
Wind  
Wind Speed 5 mph (WSW)    
Max Wind Speed 21 mph    
Max Gust Speed 29 mph    
Visibility 10 miles    
Events Rain    
T = Trace of Precipitation, MM = Missing Value Source: NWS Daily Summary

Daily Weather History Graph

Daily Weather History Graph

Search for Another Location

Airport or City:

Trip Planner

Search our weather history database for the weather conditions in past years. The results will help you decide how hot, cold, wet, or windy it might be!

Date:

Astronomy

Oct. 28, 2013 Rise Set
Actual Time 7:22 AM EDT 5:44 PM EDT
Civil Twilight 6:52 AM EDT 6:14 PM EDT
Nautical Twilight 6:18 AM EDT 6:49 PM EDT
Astronomical Twilight 5:44 AM EDT 7:22 PM EDT
Moon 12:59 AM EDT (10/28) 2:38 PM EDT (10/28)
Length of Visible Light 11h 22m
Length of Day
10h 22m
Waning Crescent, 34% of the Moon is Illuminated
Oct 28
Waning Crescent
Nov 3
New
Nov 10
First Quarter
Nov 17
Full
Nov 25
Last Quarter

Hourly Weather History & Observations

Time (EDT) Temp. Windchill Dew Point Humidity Pressure Visibility Wind Dir Wind Speed Gust Speed Precip Events Conditions
12:54 AM 39.9 °F 37.8 °F 27.0 °F 60% 30.03 in 10.0 mi WSW 3.5 mph - N/A   Clear
1:54 AM 39.0 °F - 28.0 °F 65% 30.03 in 10.0 mi Calm Calm - N/A   Overcast
2:54 AM 37.9 °F 35.5 °F 28.9 °F 70% 30.03 in 10.0 mi SSW 3.5 mph - N/A   Overcast
3:54 AM 39.0 °F 34.8 °F 28.9 °F 67% 30.02 in 10.0 mi SSW 5.8 mph - 0.00 in Rain Light Rain
4:54 AM 39.9 °F 35.8 °F 30.0 °F 68% 30.01 in 10.0 mi SSW 5.8 mph - 0.00 in   Overcast
5:54 AM 41.0 °F - 28.9 °F 62% 30.02 in 10.0 mi Calm Calm - N/A   Overcast
6:54 AM 39.9 °F - 30.9 °F 70% 30.02 in 10.0 mi Calm Calm - N/A   Overcast
7:54 AM 39.9 °F 36.7 °F 33.1 °F 77% 30.01 in 10.0 mi South 4.6 mph - 0.01 in Rain Light Rain
8:54 AM 42.1 °F 36.1 °F 33.1 °F 70% 30.01 in 10.0 mi SSW 10.4 mph - 0.00 in   Overcast
9:54 AM 43.0 °F 40.3 °F 33.1 °F 68% 30.02 in 10.0 mi SSW 4.6 mph - 0.00 in   Overcast
10:54 AM 42.1 °F 37.7 °F 35.1 °F 76% 30.07 in 7.0 mi SSW 6.9 mph - 0.01 in Rain Light Rain
11:17 AM 41.0 °F 38.0 °F 35.6 °F 81% 30.07 in 5.0 mi SSW 4.6 mph - 0.02 in Rain Light Rain
11:54 AM 42.1 °F 37.1 °F 34.0 °F 73% 30.12 in 10.0 mi NW 8.1 mph - 0.03 in Rain Light Rain
12:19 PM 42.8 °F 36.6 °F 33.8 °F 70% 30.11 in 10.0 mi WNW 11.5 mph 19.6 mph 0.00 in   Overcast
12:29 PM 42.8 °F 37.5 °F 33.8 °F 70% 30.12 in 10.0 mi WNW 9.2 mph - 0.00 in Rain Light Rain
12:41 PM 42.8 °F 37.0 °F 32.0 °F 66% 30.13 in 10.0 mi WNW 10.4 mph 18.4 mph 0.00 in   Overcast
12:54 PM 43.0 °F 41.3 °F 33.1 °F 68% 30.16 in 10.0 mi Variable 3.5 mph 20.7 mph 0.00 in   Overcast
1:54 PM 39.9 °F 31.4 °F 30.0 °F 68% 30.20 in 10.0 mi WNW 16.1 mph 24.2 mph 0.00 in Rain Light Rain
2:54 PM 42.1 °F 34.2 °F 23.0 °F 47% 30.22 in 10.0 mi WNW 16.1 mph 28.8 mph 0.00 in   Clear
3:54 PM 41.0 °F 34.3 °F 23.0 °F 49% 30.25 in 10.0 mi NNW 11.5 mph 19.6 mph N/A   Overcast
4:54 PM 39.0 °F 32.8 °F 21.9 °F 50% 30.28 in 10.0 mi NW 9.2 mph - N/A   Scattered Clouds
5:54 PM 37.9 °F 32.7 °F 21.0 °F 51% 30.31 in 10.0 mi NW 6.9 mph - N/A   Partly Cloudy
6:54 PM 33.1 °F - 21.0 °F 61% 30.35 in 10.0 mi Calm Calm - N/A   Clear
7:54 PM 30.9 °F - 21.0 °F 67% 30.37 in 10.0 mi Calm Calm - N/A   Clear
8:54 PM 28.0 °F - 21.0 °F 75% 30.39 in 10.0 mi Calm Calm - N/A   Clear
9:54 PM 28.0 °F - 21.0 °F 75% 30.40 in 10.0 mi Calm Calm - N/A   Clear
10:54 PM 27.0 °F - 21.9 °F 81% 30.41 in 10.0 mi Calm Calm - N/A   Clear
11:54 PM 25.0 °F - 19.9 °F 81% 30.42 in 10.0 mi Calm Calm - N/A   Clear